Flag for Switzerland Weather past 2 weeks in Geneva, Geneva, Switzerland

Now
54 °F

Cool.


Feels Like: 51 °F
Forecast: 43 / 63 °F
Wind: 13 mph from Northeast

Location: Geneve-Cointrin

Current Time: Sep 23, 2014 at 3:01:59 AM

Latest Report: Sep 23, 2014 at 1:00 AM


Visibility: N/A

Pressure: 30.09 "Hg

Humidity: 58%

Dew point: 40 °F

Location of GenevaLocation

Historic Weather in Geneva — Graph

°F

Geneva temperature yesterday

Maximum temperature yesterday: 66 °F (at 4:00 PM)
Minimum temperature yesterday: 56 °F (at 11:00 PM)
Average temperature yesterday: 60 °F

Past Weeks' High & Low Weather Summary

 TemperatureHumidityPressure
High83 °F (Sep 8, 4:00 PM)95% (Sep 20, 5:00 AM)30.10 "Hg (Sep 20, 5:00 AM)
Low53 °F (Sep 13, 6:00 AM)44% (Sep 12, 5:00 PM)29.81 "Hg (Sep 17, 5:00 PM)
Average64 °F77%29.98 "Hg
* Reported Sep 8 1:00 AM — Sep 23 1:00 AM, Geneva, Weather by CustomWeather, © 2014

Note: Actual official high and low records may vary slightly from our data, if they occured in-between our weather recording intervals... More about our weather records

Advertising

Geneva weather history for previous 24 hours

 ConditionsComfort  
Time TempWeatherWind HumidityBarometerVisibility
1:00 AM
Sep 23
54 °FCool.13 mph58%30.09 "HgN/A
12:00 AM55 °FCool.15 mph58%30.08 "HgN/A
11:00 PM
Sep 22
56 °FPassing clouds.18 mph57%30.08 "Hg19 mi
10:00 PM57 °FRefreshingly cool.17 mph59%30.08 "HgN/A
9:00 PM57 °FRefreshingly cool.12 mph55%30.07 "HgN/A
8:00 PM59 °FPassing clouds.10 mph56%30.06 "Hg25 mi
7:00 PM62 °FMild.12 mph55%30.04 "HgN/A
6:00 PM65 °FMild.12 mph51%30.03 "HgN/A
5:00 PM65 °FPartly sunny.13 mph50%30.03 "Hg25 mi
4:00 PM66 °FMild.13 mph49%30.04 "HgN/A
3:00 PM66 °FMild.12 mph52%30.04 "HgN/A
2:00 PM64 °FPassing clouds.15 mph53%30.06 "Hg31 mi
1:00 PM64 °FMild.14 mph56%30.07 "HgN/A
12:00 PM63 °FMild.16 mph59%30.09 "HgN/A
11:00 AM62 °FPassing clouds.14 mph66%30.09 "Hg43 mi
10:00 AM60 °FCool.12 mph72%30.09 "HgN/A
9:00 AM59 °FCool.9 mph81%30.09 "HgN/A
8:00 AM56 °FScattered clouds.6 mph87%30.10 "Hg43 mi
7:00 AM56 °FCool.2 mph91%30.09 "HgN/A
6:00 AM56 °FCool.3 mph94%30.09 "HgN/A
5:00 AM56 °FFog.3 mph94%30.08 "Hg37 mi
4:00 AM57 °FCool.1 mph94%30.08 "HgN/A
3:00 AM59 °FCool.2 mph93%30.09 "HgN/A
Weather by CustomWeather, © 2014

See weather overviewHow to use our weather pages